Location: Newark
(46.9000°N, 28.3500°E)
Time: 05:41:10
(UTC+00:00)

Vanguard 1 Rocket - Pass Details

Date: 29 August 2019
Orbit: 651 x 4225 km, 34.3° (Epoch: 20 September)

Event Time Altitude Azimuth Distance (km) Brightness Sun altitude
Rises 01:53:07 0° 250° (WSW) 2,963 - -14.7°
Reaches altitude 10° 01:55:56 10° 228° (SW) 2,135 - -14.2°
Exits shadow 01:57:41 16° 206° (SSW) 1,870 8.5 -14.0°
Maximum altitude 01:59:02 17° 186° (S) 1,872 8.7 -13.8°
Drops below altitude 10° 02:02:50 10° 146° (SE) 2,690 9.9 -13.2°
Sets 02:07:03 0° 128° (SE) 4,146 11.1 -12.6°
